Date,TemperatureHighF,TemperatureAvgF,TemperatureLowF,DewpointHighF,DewpointAvgF,DewpointLowF,HumidityHigh,HumidityAvg,HumidityLow,PressureMaxIn,PressureMinIn,WindSpeedMaxMPH,WindSpeedAvgMPH,GustSpeedMaxMPH,PrecipitationSumIn
2013-2-1,61.4,61.1,60.5,52.4,51.9,51.0,74,72,69,30.06,30.04,0,0,0,0.00
2013-2-2,61.6,60.5,58.9,54.0,50.9,48.1,78,70,67,30.06,29.98,5,0,5,0.01
2013-2-3,64.3,62.8,61.6,56.5,53.6,51.8,78,72,70,30.01,29.91,8,0,8,0.00
2013-2-4,63.7,62.1,61.2,54.7,52.7,51.0,76,71,69,30.00,29.89,5,0,5,0.00
2013-2-5,62.5,61.5,60.8,53.9,52.6,51.5,76,72,71,30.01,29.89,3,0,3,0.00
2013-2-6,62.5,61.7,61.0,54.1,52.4,51.0,76,72,69,30.01,29.90,3,0,3,0.00
2013-2-7,62.1,60.6,59.2,53.4,51.2,49.1,76,71,68,30.02,29.92,5,0,5,0.00
2013-2-8,61.2,59.9,59.2,51.5,49.9,48.2,73,69,67,29.93,29.81,4,0,4,0.25
2013-2-9,59.4,57.5,56.2,48.6,47.0,44.9,73,68,66,30.01,29.83,3,0,3,0.01
2013-2-10,59.0,56.8,55.1,48.6,46.4,43.5,74,68,65,30.00,29.91,2,0,2,0.02
2013-2-11,59.0,58.3,57.4,48.1,46.8,45.7,67,66,65,29.96,29.94,0,0,0,0.00
2013-2-14,59.8,59.0,58.0,50.9,50.1,49.2,76,72,69,30.04,29.94,3,0,3,0.00
2013-2-15,62.5,59.1,56.9,52.8,49.3,46.6,76,70,65,30.06,29.99,5,0,5,0.00
2013-2-16,62.3,60.1,57.8,51.4,48.1,44.8,70,65,62,30.03,29.88,7,0,7,0.00
2013-2-17,61.0,59.2,57.6,50.0,47.0,43.9,71,64,60,29.93,29.84,3,0,3,0.00
2013-2-18,61.7,60.6,59.9,52.8,49.7,48.2,74,67,65,29.95,29.87,2,0,2,0.00
2013-2-19,61.6,60.2,59.6,50.8,48.6,47.3,70,66,64,29.90,29.67,4,0,4,0.57
2013-2-20,61.0,58.8,57.6,49.2,46.7,44.6,70,64,62,29.92,29.64,8,1,8,0.14
2013-2-21,60.5,58.0,56.3,49.1,45.7,43.2,70,64,61,30.00,29.86,4,0,4,0.04
2013-2-22,59.4,57.7,55.8,48.8,45.9,42.8,73,65,61,30.08,29.99,5,0,5,0.00
2013-2-23,59.0,57.5,55.6,49.0,46.3,43.2,72,66,63,30.07,29.83,2,0,2,0.00
2013-2-24,60.5,58.3,56.7,49.3,47.2,44.8,72,67,63,30.10,29.86,7,0,7,0.00
2013-2-25,60.3,57.2,55.1,48.5,44.6,41.1,70,63,59,30.11,29.98,5,0,5,0.00
2013-2-26,59.4,56.6,53.8,46.8,43.6,39.3,68,62,58,30.00,29.87,2,0,2,0.00
2013-2-27,61.6,58.6,55.4,49.4,46.5,42.6,68,64,62,30.16,29.99,6,0,6,0.00
2013-2-28,63.7,59.7,56.3,49.3,45.9,41.8,65,60,58,30.19,30.11,7,0,7,0.00